,,Stat5,,Stat1,,Stat2,,Stat3,,Stat4,,Wind1,,Wind1,
time,status,PA1M_AVG,status,PR1M_SUM,status,RH1M_AVG,status,SR1M_AVG,status,TA1M_AVG,status,W1dAve1m,status,W1sAve1m,
2001-11-29, 00:00:01,VALID,917.685,VALID,0,VALID,98.6816,VALID,0.0169808,VALID,19.2847,VALID,156,VALID,1.52784,
2001-11-29, 00:01:00,VALID,917.66,VALID,0,VALID,98.6752,VALID,0,VALID,19.2783,VALID,159,VALID,1.15119,
2001-11-29, 00:02:00,VALID,917.645,VALID,0,VALID,98.6943,VALID,0.0169808,VALID,19.2785,VALID,154,VALID,1.38091,
2001-11-29, 00:03:00,VALID,917.634,VALID,0,VALID,98.7083,VALID,0,VALID,19.2825,VALID,159,VALID,1.1272,
2001-11-29, 00:04:00,VALID,917.634,VALID,0,VALID,98.7019,VALID,0,VALID,19.2621,VALID,170,VALID,0.75,
2001-11-29, 00:05:00,VALID,917.61,VALID,0,VALID,98.7007,VALID,-0.0849042,VALID,19.2474,VALID,159,VALID,1.50758,
2001-11-29, 00:06:00,VALID,917.601,VALID,0,VALID,98.7236,VALID,-0.101885,VALID,19.2509,VALID,166,VALID,1.63411,
2001-11-29, 00:07:00,VALID,917.579,VALID,0,VALID,98.749,VALID,-0.101885,VALID,19.241,VALID,149,VALID,1.63662,
2001-11-29, 00:08:00,VALID,917.564,VALID,0,VALID,98.7706,VALID,-0.101885,VALID,19.2544,VALID,161,VALID,2.0633,
2001-11-29, 00:09:00,VALID,917.546,VALID,0,VALID,98.777,VALID,-0.101885,VALID,19.2581,VALID,153,VALID,1.6242,
2001-11-29, 00:10:00,VALID,917.517,VALID,0,VALID,98.777,VALID,-0.0849042,VALID,19.2479,VALID,151,VALID,1.91732,
2001-11-29, 00:11:00,VALID,917.504,VALID,0,VALID,98.7833,VALID,-0.118866,VALID,19.2444,VALID,160,VALID,1.36369,
2001-11-29, 00:12:00,VALID,917.48,VALID,0,VALID,98.777,VALID,-0.101885,VALID,19.235,VALID,161,VALID,1.81229,
2001-11-29, 00:13:00,VALID,917.46,VALID,0,VALID,98.8037,VALID,-0.101885,VALID,19.232,VALID,169,VALID,1.45785,
2001-11-29, 00:14:00,VALID,917.443,VALID,0,VALID,98.8049,VALID,-0.101885,VALID,19.2191,VALID,160,VALID,1.01541,
2001-11-29, 00:15:00,VALID,917.428,VALID,0,VALID,98.81,VALID,-0.101885,VALID,19.2054,VALID,156,VALID,1.71812,
2001-11-29, 00:16:00,VALID,917.398,VALID,0,VALID,98.8406,VALID,-0.101885,VALID,19.2091,VALID,149,VALID,2.06138,
2001-11-29, 00:17:00,VALID,917.401,VALID,0,VALID,98.8622,VALID,-0.101885,VALID,19.2288,VALID,147,VALID,1.99544,
2001-11-29, 00:18:00,VALID,917.377,VALID,0,VALID,98.8698,VALID,-0.118866,VALID,19.2285,VALID,156,VALID,1.76162,
2001-11-29, 00:19:00,VALID,917.356,VALID,0,VALID,98.8456,VALID,-0.135847,VALID,19.2387,VALID,143,VALID,1.4338,
2001-11-29, 00:20:00,VALID,917.346,VALID,0,VALID,98.8151,VALID,0.0849042,VALID,19.2321,VALID,132,VALID,1.28104,
2001-11-29, 00:21:00,VALID,917.359,VALID,0,VALID,98.7897,VALID,0.135847,VALID,19.2353,VALID,140,VALID,1.55,
2001-11-29, 00:22:00,VALID,917.342,VALID,0,VALID,98.7693,VALID,0.101885,VALID,19.2485,VALID,147,VALID,1.8099,
2001-11-29, 00:23:00,VALID,917.322,VALID,0,VALID,98.7248,VALID,0.0849042,VALID,19.2547,VALID,146,VALID,1.29097,
2001-11-29, 00:24:00,VALID,917.328,VALID,0,VALID,98.6829,VALID,0.101885,VALID,19.2609,VALID,148,VALID,1.32773,
2001-11-29, 00:25:00,VALID,917.31,VALID,0,VALID,98.6333,VALID,0.0849042,VALID,19.2676,VALID,135,VALID,1.66602,
2001-11-29, 00:26:00,VALID,917.295,VALID,0,VALID,98.5862,VALID,0.101885,VALID,19.2612,VALID,140,VALID,1.71528,
2001-11-29, 00:27:00,VALID,917.286,VALID,0,VALID,98.5417,VALID,0.101885,VALID,19.2738,VALID,149,VALID,1.87991,
2001-11-29, 00:28:00,VALID,917.27,VALID,0,VALID,98.4781,VALID,0.101885,VALID,19.2838,VALID,152,VALID,1.64248,
2001-11-29, 00:29:00,VALID,917.247,VALID,0,VALID,98.4057,VALID,0.0679233,VALID,19.2835,VALID,147,VALID,1.86824,
2001-11-29, 00:30:00,VALID,917.239,VALID,0,VALID,98.3294,VALID,0.101885,VALID,19.2927,VALID,155,VALID,2.27123,
2001-11-29, 00:31:00,VALID,917.222,VALID,0,VALID,98.2213,VALID,0.118866,VALID,19.3059,VALID,152,VALID,2.23691,
2001-11-29, 00:32:00,VALID,917.209,VALID,0,VALID,98.1234,VALID,0.101885,VALID,19.3228,VALID,153,VALID,1.89315,
2001-11-29, 00:33:00,VALID,917.195,VALID,0,VALID,98.0255,VALID,0.101885,VALID,19.3357,VALID,150,VALID,1.85296,
2001-11-29, 00:34:00,VALID,917.173,VALID,0,VALID,97.9326,VALID,0.101885,VALID,19.3322,VALID,133,VALID,1.4365,
2001-11-29, 00:35:00,VALID,917.171,VALID,0,VALID,97.8462,VALID,-0.0169808,VALID,19.3369,VALID,157,VALID,1.96094,
2001-11-29, 00:36:00,VALID,917.177,VALID,0,VALID,97.7584,VALID,0,VALID,19.3367,VALID,137,VALID,2.60259,
2001-11-29, 00:37:00,VALID,917.155,VALID,0,VALID,97.6618,VALID,0,VALID,19.3399,VALID,137,VALID,2.0247,
2001-11-29, 00:38:00,VALID,917.141,VALID,0,VALID,97.5562,VALID,0,VALID,19.3503,VALID,152,VALID,1.91753,
2001-11-29, 00:39:00,VALID,917.127,VALID,0,VALID,97.452,VALID,0,VALID,19.3436,VALID,149,VALID,3.08093,
2001-11-29, 00:40:00,VALID,917.104,VALID,0,VALID,97.3604,VALID,-0.0169808,VALID,19.3533,VALID,150,VALID,2.32656,
2001-11-29, 00:41:00,VALID,917.097,VALID,0,VALID,97.2956,VALID,0,VALID,19.363,VALID,141,VALID,1.97396,
2001-11-29, 00:42:00,VALID,917.106,VALID,0,VALID,97.2269,VALID,-0.0509425,VALID,19.3598,VALID,139,VALID,1.95012,
2001-11-29, 00:43:00,VALID,917.098,VALID,0,VALID,97.1989,VALID,-0.0169808,VALID,19.3498,VALID,150,VALID,2.03798,
2001-11-29, 00:44:00,VALID,917.079,VALID,0,VALID,97.1811,VALID,0,VALID,19.3501,VALID,151,VALID,2.02865,
2001-11-29, 00:45:00,VALID,917.071,VALID,0,VALID,97.2294,VALID,-0.0169808,VALID,19.3468,VALID,151,VALID,2.31826,
2001-11-29, 00:46:00,VALID,917.041,VALID,0,VALID,97.3223,VALID,-0.0169808,VALID,19.3436,VALID,145,VALID,2.11863,
2001-11-29, 00:47:00,VALID,917.027,VALID,0,VALID,97.4151,VALID,0,VALID,19.3344,VALID,143,VALID,1.47931,
2001-11-29, 00:48:00,VALID,917.018,VALID,0,VALID,97.4532,VALID,-0.0169808,VALID,19.3081,VALID,132,VALID,1.53421,
2001-11-29, 00:49:00,VALID,917.007,VALID,0,VALID,97.3566,VALID,-0.0679233,VALID,19.3019,VALID,123,VALID,2.38103,
2001-11-29, 00:50:00,VALID,916.979,VALID,0,VALID,97.1926,VALID,-0.0339617,VALID,19.3116,VALID,109,VALID,1.6263,
2001-11-29, 00:51:00,VALID,916.964,VALID,0,VALID,97.0349,VALID,0,VALID,19.3245,VALID,125,VALID,1.67688,
2001-11-29, 00:52:00,VALID,916.945,VALID,0,VALID,96.9497,VALID,-0.0169808,VALID,19.3439,VALID,134,VALID,2.37562,
2001-11-29, 00:53:00,VALID,916.918,VALID,0,VALID,96.8098,VALID,0,VALID,19.3431,VALID,126,VALID,2.03002,
2001-11-29, 00:54:00,VALID,916.922,VALID,0,VALID,96.6928,VALID,-0.0339617,VALID,19.3662,VALID,129,VALID,2.23906,
2001-11-29, 00:55:00,VALID,916.883,VALID,0,VALID,96.5949,VALID,-0.0339617,VALID,19.3824,VALID,125,VALID,1.65905,
2001-11-29, 00:56:00,VALID,916.882,VALID,0,VALID,96.5669,VALID,-0.0339617,VALID,19.3888,VALID,97,VALID,1.68121,
2001-11-29, 00:57:00,VALID,916.861,VALID,0,VALID,96.5339,VALID,-0.0339617,VALID,19.3953,VALID,115,VALID,1.89766,
2001-11-29, 00:58:00,VALID,916.845,VALID,0,VALID,96.5453,VALID,-0.0679233,VALID,19.3826,VALID,94,VALID,1.77062,
2001-11-29, 00:59:00,VALID,916.827,VALID,0,VALID,96.628,VALID,-0.0339617,VALID,19.3697,VALID,72,VALID,2.1122,
2001-11-29, 01:00:00,VALID,916.825,VALID,0,VALID,96.6267,VALID,-0.0169808,VALID,19.3697,VALID,118,VALID,1.94732,
2001-11-29, 01:01:00,VALID,916.818,VALID,0,VALID,96.5288,VALID,-0.0169808,VALID,19.3754,VALID,121,VALID,2.02138,
2001-11-29, 01:02:00,VALID,916.797,VALID,0,VALID,96.5161,VALID,-0.0169808,VALID,19.3754,VALID,94,VALID,1.33573,
2001-11-29, 01:03:00,VALID,916.765,VALID,0,VALID,96.4983,VALID,-0.0169808,VALID,19.3789,VALID,101,VALID,1.51583,
2001-11-29, 01:04:00,VALID,916.751,VALID,0,VALID,96.5987,VALID,0,VALID,19.3625,VALID,118,VALID,2.08086,
2001-11-29, 01:05:00,VALID,916.73,VALID,0,VALID,96.6686,VALID,0,VALID,19.3501,VALID,103,VALID,1.52895,
2001-11-29, 01:06:00,VALID,916.71,VALID,0,VALID,96.7449,VALID,-0.0169808,VALID,19.327,VALID,109,VALID,1.73718,
2001-11-29, 01:07:00,VALID,916.672,VALID,0,VALID,96.8403,VALID,0,VALID,19.3113,VALID,116,VALID,1.29768,
2001-11-29, 01:08:00,VALID,916.638,VALID,0,VALID,96.895,VALID,0,VALID,19.285,VALID,107,VALID,1.91266,
2001-11-29, 01:09:00,VALID,916.604,VALID,0,VALID,96.9281,VALID,0,VALID,19.2917,VALID,73,VALID,1.47266,
2001-11-29, 01:10:00,VALID,916.557,VALID,0,VALID,96.9115,VALID,-0.0169808,VALID,19.2822,VALID,116,VALID,1.74071,
2001-11-29, 01:11:00,VALID,916.552,VALID,0,VALID,96.8975,VALID,-0.0169808,VALID,19.2984,VALID,113,VALID,1.91081,
2001-11-29, 01:12:00,VALID,916.531,VALID,0,VALID,96.8327,VALID,0,VALID,19.2919,VALID,116,VALID,1.94712,
2001-11-29, 01:13:00,VALID,916.526,VALID,0,VALID,96.7437,VALID,-0.0169808,VALID,19.2847,VALID,115,VALID,1.22305,
2001-11-29, 01:14:00,VALID,916.531,VALID,0,VALID,96.7399,VALID,-0.0169808,VALID,19.2887,VALID,132,VALID,1.32933,
2001-11-29, 01:15:00,VALID,916.524,VALID,0,VALID,96.7717,VALID,-0.0169808,VALID,19.2656,VALID,139,VALID,1.26022,
2001-11-29, 01:16:00,VALID,916.532,VALID,0,VALID,96.8314,VALID,0,VALID,19.2661,VALID,138,VALID,1.02995,
2001-11-29, 01:17:00,VALID,916.534,VALID,0,VALID,96.8823,VALID,0,VALID,19.2395,VALID,139,VALID,1.31538,
2001-11-29, 01:18:00,VALID,916.551,VALID,0,VALID,96.9357,VALID,0,VALID,19.2502,VALID,144,VALID,1.20436,
2001-11-29, 01:19:00,VALID,916.554,VALID,0,VALID,96.9598,VALID,0,VALID,19.2497,VALID,142,VALID,1.04338,
2001-11-29, 01:20:00,VALID,916.553,VALID,0,VALID,96.9509,VALID,0,VALID,19.2465,VALID,138,VALID,1.74367,
2001-11-29, 01:21:00,VALID,916.531,VALID,0,VALID,96.9115,VALID,0,VALID,19.2335,VALID,143,VALID,1.39949,
2001-11-29, 01:22:00,VALID,916.505,VALID,0,VALID,96.8746,VALID,-0.0169808,VALID,19.24,VALID,131,VALID,1.69978,
2001-11-29, 01:23:00,VALID,916.475,VALID,0,VALID,96.8518,VALID,0,VALID,19.24,VALID,145,VALID,1.54188,
2001-11-29, 01:24:00,VALID,916.465,VALID,0,VALID,96.8111,VALID,-0.0169808,VALID,19.2432,VALID,146,VALID,1.59415,
2001-11-29, 01:25:00,VALID,916.46,VALID,0,VALID,96.7627,VALID,0,VALID,19.24,VALID,143,VALID,1.71752,
2001-11-29, 01:26:00,VALID,916.454,VALID,0,VALID,96.7538,VALID,0,VALID,19.2502,VALID,143,VALID,1.62109,
2001-11-29, 01:27:00,VALID,916.425,VALID,0,VALID,96.7437,VALID,0.0169808,VALID,19.2462,VALID,147,VALID,1.48795,
2001-11-29, 01:28:00,VALID,916.399,VALID,0,VALID,96.7322,VALID,0,VALID,19.2462,VALID,154,VALID,1.40585,
2001-11-29, 01:29:00,VALID,916.397,VALID,0,VALID,96.7043,VALID,0,VALID,19.2492,VALID,135,VALID,1.60918,
2001-11-29, 01:30:00,VALID,916.392,VALID,0,VALID,96.6623,VALID,-0.0169808,VALID,19.2626,VALID,151,VALID,1.45898,
2001-11-29, 01:31:00,VALID,916.399,VALID,0,VALID,96.628,VALID,-0.0169808,VALID,19.2624,VALID,136,VALID,1.28147,
2001-11-29, 01:32:00,VALID,916.391,VALID,0,VALID,96.5847,VALID,0,VALID,19.2691,VALID,139,VALID,1.62001,
2001-11-29, 01:33:00,VALID,916.387,VALID,0,VALID,96.5529,VALID,0,VALID,19.2656,VALID,142,VALID,1.25,
2001-11-29, 01:34:00,VALID,916.372,VALID,0,VALID,96.544,VALID,0,VALID,19.2626,VALID,143,VALID,1.55428,
2001-11-29, 01:35:00,VALID,916.341,VALID,0,VALID,96.5262,VALID,0,VALID,19.2698,VALID,138,VALID,1.6989,
2001-11-29, 01:36:00,VALID,916.301,VALID,0,VALID,96.4372,VALID,0,VALID,19.2725,VALID,141,VALID,1.40685,
2001-11-29, 01:37:00,VALID,916.268,VALID,0,VALID,96.3571,VALID,0,VALID,19.2795,VALID,117,VALID,0.809766,
2001-11-29, 01:38:00,VALID,916.24,VALID,0,VALID,96.3507,VALID,-0.0339617,VALID,19.2624,VALID,116,VALID,1.39269,
2001-11-29, 01:39:00,VALID,916.204,VALID,0,VALID,96.3749,VALID,-0.0679233,VALID,19.2529,VALID,125,VALID,1.21695,
2001-11-29, 01:40:00,VALID,916.174,VALID,0,VALID,96.3304,VALID,-0.0339617,VALID,19.2564,VALID,115,VALID,1.56851,
2001-11-29, 01:41:00,VALID,916.145,VALID,0,VALID,96.2681,VALID,-0.0339617,VALID,19.2725,VALID,131,VALID,1.17768,
2001-11-29, 01:42:00,VALID,916.118,VALID,0,VALID,96.2109,VALID,0,VALID,19.2691,VALID,123,VALID,1.27364,
2001-11-29, 01:43:00,VALID,916.106,VALID,0,VALID,96.1931,VALID,0,VALID,19.279,VALID,117,VALID,1.28822,
2001-11-29, 01:44:00,VALID,916.104,VALID,0,VALID,96.249,VALID,0,VALID,19.2626,VALID,139,VALID,1.47917,
2001-11-29, 01:45:00,VALID,916.088,VALID,0,VALID,96.2732,VALID,0,VALID,19.2626,VALID,141,VALID,0.995994,
2001-11-29, 01:46:00,VALID,916.078,VALID,0,VALID,96.3444,VALID,0,VALID,19.2465,VALID,132,VALID,1.30664,
2001-11-29, 01:47:00,VALID,916.073,VALID,0,VALID,96.4321,VALID,0,VALID,19.2462,VALID,145,VALID,1.16867,
2001-11-29, 01:48:00,VALID,916.064,VALID,0,VALID,96.5237,VALID,-0.0339617,VALID,19.2271,VALID,147,VALID,1.58654,
2001-11-29, 01:49:00,VALID,916.068,VALID,0,VALID,96.572,VALID,0,VALID,19.2238,VALID,129,VALID,0.972656,
2001-11-29, 01:50:00,VALID,916.091,VALID,0,VALID,96.5389,VALID,0,VALID,19.2204,VALID,135,VALID,0.967516,
2001-11-29, 01:51:00,VALID,916.083,VALID,0,VALID,96.5987,VALID,0,VALID,19.2209,VALID,122,VALID,1.06723,
2001-11-29, 01:52:00,VALID,916.081,VALID,0,VALID,96.5962,VALID,-0.0169808,VALID,19.2077,VALID,105,VALID,0.60773,
2001-11-29, 01:53:00,VALID,916.076,VALID,0,VALID,96.5974,VALID,0,VALID,19.1915,VALID,120,VALID,0.523226,
2001-11-29, 01:54:00,VALID,916.057,VALID,0,VALID,96.6483,VALID,0,VALID,19.1948,VALID,141,VALID,0.97614,
2001-11-29, 01:55:00,VALID,916.052,VALID,0,VALID,96.6483,VALID,0,VALID,19.1883,VALID,130,VALID,0.680134,
2001-11-29, 01:56:00,VALID,916.049,VALID,0,VALID,96.6343,VALID,-0.0339617,VALID,19.1915,VALID,123,VALID,0.82053,
2001-11-29, 01:57:00,VALID,916.047,VALID,0,VALID,96.5936,VALID,0,VALID,19.1883,VALID,143,VALID,0.869792,
2001-11-29, 01:58:00,VALID,916.02,VALID,0,VALID,96.5415,VALID,-0.0339617,VALID,19.2047,VALID,144,VALID,1.86061,
2001-11-29, 01:59:00,VALID,915.995,VALID,0,VALID,96.4461,VALID,0,VALID,19.2146,VALID,152,VALID,1.2021,
2001-11-29, 02:00:00,VALID,915.98,VALID,0,VALID,96.366,VALID,-0.0339617,VALID,19.234,VALID,143,VALID,1.60915,
2001-11-29, 02:01:00,VALID,915.957,VALID,0,VALID,96.2859,VALID,-0.0169808,VALID,19.2373,VALID,136,VALID,1.33554,
2001-11-29, 02:02:00,VALID,915.946,VALID,0,VALID,96.2338,VALID,-0.0339617,VALID,19.2504,VALID,149,VALID,0.808689,
2001-11-29, 02:03:00,VALID,915.94,VALID,0,VALID,96.1994,VALID,-0.0509425,VALID,19.2469,VALID,145,VALID,1.29629,
2001-11-29, 02:04:00,VALID,915.904,VALID,0,VALID,96.1765,VALID,-0.0679233,VALID,19.2437,VALID,147,VALID,1.15755,
2001-11-29, 02:05:00,VALID,915.9,VALID,0,VALID,96.1854,VALID,0.101885,VALID,19.2485,VALID,149,VALID,0.963759,
2001-11-29, 02:06:00,VALID,915.882,VALID,0,VALID,96.1943,VALID,0.0509425,VALID,19.239,VALID,151,VALID,1.3808,
2001-11-29, 02:07:00,VALID,915.87,VALID,0,VALID,96.1676,VALID,0.0849042,VALID,19.2452,VALID,160,VALID,1.36534,
2001-11-29, 02:08:00,VALID,915.861,VALID,0,VALID,96.1511,VALID,0.0849042,VALID,19.2517,VALID,144,VALID,1.3277,
2001-11-29, 02:09:00,VALID,915.862,VALID,0,VALID,96.1562,VALID,0.0509425,VALID,19.2452,VALID,144,VALID,1.36538,
2001-11-29, 02:10:00,VALID,915.854,VALID,0,VALID,96.1626,VALID,0.0509425,VALID,19.2487,VALID,141,VALID,1.41191,
2001-11-29, 02:11:00,VALID,915.85,VALID,0,VALID,96.1422,VALID,0.0849042,VALID,19.2356,VALID,135,VALID,1.27206,
2001-11-29, 02:12:00,VALID,915.829,VALID,0,VALID,96.1257,VALID,0.0849042,VALID,19.239,VALID,132,VALID,0.776042,
2001-11-29, 02:13:00,VALID,915.808,VALID,0,VALID,96.1091,VALID,0.0849042,VALID,19.2358,VALID,126,VALID,1.26102,
2001-11-29, 02:14:00,VALID,915.799,VALID,0,VALID,96.0812,VALID,0.0509425,VALID,19.2293,VALID,118,VALID,1.07252,
2001-11-29, 02:15:00,VALID,915.778,VALID,0,VALID,96.085,VALID,0.101885,VALID,19.2326,VALID,115,VALID,1.45004,
2001-11-29, 02:16:00,VALID,915.751,VALID,0,VALID,96.0456,VALID,0.0509425,VALID,19.2326,VALID,131,VALID,2.11212,
2001-11-29, 02:17:00,VALID,915.733,VALID,0,VALID,95.9693,VALID,0.101885,VALID,19.2452,VALID,106,VALID,0.794488,
2001-11-29, 02:18:00,VALID,915.742,VALID,0,VALID,95.9438,VALID,0.0679233,VALID,19.2649,VALID,108,VALID,1.19551,
2001-11-29, 02:19:00,VALID,915.729,VALID,0,VALID,95.8917,VALID,0.0849042,VALID,19.2547,VALID,96,VALID,1.32813,
2001-11-29, 02:20:00,VALID,915.719,VALID,0,VALID,95.6857,VALID,-0.0169808,VALID,19.2822,VALID,127,VALID,1.94231,
2001-11-29, 02:21:00,VALID,915.708,VALID,0,VALID,95.4746,VALID,-0.0339617,VALID,19.3081,VALID,140,VALID,1.48878,
2001-11-29, 02:22:00,VALID,915.703,VALID,0,VALID,95.2305,VALID,-0.0339617,VALID,19.3304,VALID,113,VALID,1.58767,
2001-11-29, 02:23:00,VALID,915.661,VALID,0,VALID,94.9405,VALID,-0.0339617,VALID,19.3699,VALID,111,VALID,1.63713,
2001-11-29, 02:24:00,VALID,915.681,VALID,0,VALID,94.6328,VALID,-0.0849042,VALID,19.4216,VALID,131,VALID,1.47965,
2001-11-29, 02:25:00,VALID,915.678,VALID,0,VALID,94.4522,VALID,-0.0679233,VALID,19.444,VALID,132,VALID,1.14494,
2001-11-29, 02:26:00,VALID,915.677,VALID,0,VALID,94.4408,VALID,-0.0679233,VALID,19.45,VALID,155,VALID,1.30743,
2001-11-29, 02:27:00,VALID,915.659,VALID,0,VALID,94.4395,VALID,-0.0169808,VALID,19.4698,VALID,145,VALID,0.943201,
2001-11-29, 02:28:00,VALID,915.662,VALID,0,VALID,94.3925,VALID,-0.0679233,VALID,19.4435,VALID,139,VALID,1.74732,
2001-11-29, 02:29:00,VALID,915.66,VALID,0,VALID,94.3047,VALID,0,VALID,19.4599,VALID,159,VALID,1.85308,
2001-11-29, 02:30:00,VALID,915.665,VALID,0,VALID,94.1725,VALID,-0.0169808,VALID,19.4733,VALID,153,VALID,1.52264,
2001-11-29, 02:31:00,VALID,915.674,VALID,0,VALID,94.0428,VALID,-0.0169808,VALID,19.4887,VALID,164,VALID,1.4007,
2001-11-29, 02:32:00,VALID,915.706,VALID,0,VALID,94.0059,VALID,-0.0679233,VALID,19.5051,VALID,160,VALID,1.26131,
2001-11-29, 02:33:00,VALID,915.72,VALID,0,VALID,94.0008,VALID,-0.0339617,VALID,19.4989,VALID,155,VALID,1.63437,
2001-11-29, 02:34:00,VALID,915.734,VALID,0,VALID,93.9144,VALID,-0.0509425,VALID,19.5022,VALID,158,VALID,1.21414,
2001-11-29, 02:35:00,VALID,915.729,VALID,0,VALID,93.8762,VALID,0,VALID,19.5014,VALID,156,VALID,1.45141,
2001-11-29, 02:36:00,VALID,915.719,VALID,0,VALID,93.8177,VALID,-0.0169808,VALID,19.5178,VALID,150,VALID,1.58691,
2001-11-29, 02:37:00,VALID,915.72,VALID,0,VALID,93.6906,VALID,0,VALID,19.5208,VALID,141,VALID,1.31684,
2001-11-29, 02:38:00,VALID,915.718,VALID,0,VALID,93.6499,VALID,-0.0169808,VALID,19.5302,VALID,142,VALID,1.16319,
2001-11-29, 02:39:00,VALID,915.724,VALID,0,VALID,93.5926,VALID,0.0169808,VALID,19.5402,VALID,146,VALID,0.983259,
2001-11-29, 02:40:00,VALID,915.715,VALID,0,VALID,93.5316,VALID,0,VALID,19.5432,VALID,162,VALID,1.70045,
2001-11-29, 02:41:00,VALID,915.712,VALID,0,VALID,93.5405,VALID,0,VALID,19.5392,VALID,129,VALID,0.802365,
2001-11-29, 02:42:00,VALID,915.711,VALID,0,VALID,93.6244,VALID,0,VALID,19.5369,VALID,149,VALID,1.0609,
2001-11-29, 02:43:00,VALID,915.707,VALID,0,VALID,93.6549,VALID,0,VALID,19.53,VALID,135,VALID,1.23516,
2001-11-29, 02:44:00,VALID,915.701,VALID,0,VALID,93.5405,VALID,0,VALID,19.5305,VALID,156,VALID,1.82146,
2001-11-29, 02:45:00,VALID,915.695,VALID,0,VALID,93.3307,VALID,0,VALID,19.5429,VALID,148,VALID,1.88602,
2001-11-29, 02:46:00,VALID,915.694,VALID,0,VALID,93.1908,VALID,0,VALID,19.5919,VALID,133,VALID,1.58694,
2001-11-29, 02:47:00,VALID,915.686,VALID,0,VALID,92.9924,VALID,-0.0339617,VALID,19.605,VALID,130,VALID,1.53446,
2001-11-29, 02:48:00,VALID,915.689,VALID,0,VALID,92.9161,VALID,0,VALID,19.6239,VALID,138,VALID,0.966077,
2001-11-29, 02:49:00,VALID,915.695,VALID,0,VALID,92.8882,VALID,0,VALID,19.6242,VALID,123,VALID,0.553843,
2001-11-29, 02:50:00,VALID,915.697,VALID,0,VALID,92.9238,VALID,0.0169808,VALID,19.6207,VALID,172,VALID,0.431424,
2001-11-29, 02:51:00,VALID,915.708,VALID,0,VALID,92.9543,VALID,0,VALID,19.611,VALID,186,VALID,0.0204327,
2001-11-29, 02:52:00,VALID,915.694,VALID,0,VALID,92.995,VALID,0,VALID,19.5849,VALID,107,VALID,0.867383,
2001-11-29, 02:53:00,VALID,915.701,VALID,0,VALID,93.0878,VALID,-0.0169808,VALID,19.5785,VALID,119,VALID,0.777644,
2001-11-29, 02:54:00,VALID,915.702,VALID,0,VALID,93.1514,VALID,0,VALID,19.5792,VALID,157,VALID,0.567107,
2001-11-29, 02:55:00,VALID,915.713,VALID,0,VALID,93.1946,VALID,-0.0339617,VALID,19.5693,VALID,161,VALID,0.799045,
2001-11-29, 02:56:00,VALID,915.723,VALID,0,VALID,93.2684,VALID,0,VALID,19.5529,VALID,126,VALID,1.03845,
2001-11-29, 02:57:00,VALID,915.717,VALID,0,VALID,93.3205,VALID,0,VALID,19.5365,VALID,127,VALID,0.615954,
2001-11-29, 02:58:00,VALID,915.723,VALID,0,VALID,93.3994,VALID,0.0169808,VALID,19.5201,VALID,140,VALID,0.418586,
2001-11-29, 02:59:00,VALID,915.701,VALID,0,VALID,93.5609,VALID,0,VALID,19.4979,VALID,136,VALID,0.818623,
2001-11-29, 03:00:00,VALID,915.679,VALID,0,VALID,93.7808,VALID,-0.0169808,VALID,19.4756,VALID,152,VALID,0.832981,
2001-11-29, 03:01:00,VALID,915.679,VALID,0,VALID,93.9703,VALID,0.0169808,VALID,19.4624,VALID,157,VALID,0.816741,
2001-11-29, 03:02:00,VALID,915.642,VALID,0,VALID,94.2221,VALID,0,VALID,19.44,VALID,142,VALID,1.61176,
2001-11-29, 03:03:00,VALID,915.596,VALID,0,VALID,94.451,VALID,0.0169808,VALID,19.4207,VALID,137,VALID,1.124,
2001-11-29, 03:04:00,VALID,915.56,VALID,0,VALID,94.6481,VALID,0.0169808,VALID,19.3883,VALID,124,VALID,1.0625,
2001-11-29, 03:05:00,VALID,915.505,VALID,0,VALID,94.8452,VALID,0,VALID,19.3397,VALID,96,VALID,0.896587,
2001-11-29, 03:06:00,VALID,915.485,VALID,0,VALID,95.0207,VALID,0.0169808,VALID,19.3173,VALID,91,VALID,0.664286,
2001-11-29, 03:07:00,VALID,915.464,VALID,0,VALID,95.1453,VALID,0.0169808,VALID,19.278,VALID,125,VALID,1.23978,
2001-11-29, 03:08:00,VALID,915.447,VALID,0,VALID,95.1122,VALID,0.0169808,VALID,19.2587,VALID,135,VALID,1.58308,
2001-11-29, 03:09:00,VALID,915.439,VALID,0,VALID,95.0346,VALID,0.0169808,VALID,19.2718,VALID,122,VALID,0.941406,
2001-11-29, 03:10:00,VALID,915.444,VALID,0,VALID,95.0295,VALID,0.0339617,VALID,19.2817,VALID,143,VALID,1.26606,
2001-11-29, 03:11:00,VALID,915.443,VALID,0,VALID,95.0588,VALID,0,VALID,19.2753,VALID,141,VALID,0.808811,
2001-11-29, 03:12:00,VALID,915.455,VALID,0,VALID,95.0842,VALID,0.0169808,VALID,19.2524,VALID,148,VALID,1.58237,
2001-11-29, 03:13:00,VALID,915.449,VALID,0,VALID,95.0257,VALID,0,VALID,19.2527,VALID,132,VALID,1.35177,
2001-11-29, 03:14:00,VALID,915.459,VALID,0,VALID,94.9291,VALID,0,VALID,19.2527,VALID,151,VALID,1.43898,
2001-11-29, 03:15:00,VALID,915.457,VALID,0,VALID,94.8147,VALID,0,VALID,19.2785,VALID,147,VALID,1.39784,
2001-11-29, 03:16:00,VALID,915.441,VALID,0,VALID,94.7752,VALID,0,VALID,19.2914,VALID,142,VALID,1.22285,
2001-11-29, 03:17:00,VALID,915.438,VALID,0,VALID,94.6226,VALID,-0.0169808,VALID,19.2981,VALID,152,VALID,2.09949,
2001-11-29, 03:18:00,VALID,915.422,VALID,0,VALID,94.5718,VALID,-0.0169808,VALID,19.3237,VALID,145,VALID,1.26863,
2001-11-29, 03:19:00,VALID,915.425,VALID,0,VALID,94.5463,VALID,-0.0169808,VALID,19.3267,VALID,134,VALID,1.05629,
2001-11-29, 03:20:00,VALID,915.425,VALID,0,VALID,94.5743,VALID,0.0169808,VALID,19.3136,VALID,146,VALID,1.48838,
2001-11-29, 03:21:00,VALID,915.412,VALID,0,VALID,94.601,VALID,-0.0169808,VALID,19.3173,VALID,148,VALID,1.59108,
2001-11-29, 03:22:00,VALID,915.41,VALID,0,VALID,94.5985,VALID,0,VALID,19.317,VALID,148,VALID,1.75718,
2001-11-29, 03:23:00,VALID,915.398,VALID,0,VALID,94.4268,VALID,0,VALID,19.317,VALID,135,VALID,1.12413,
2001-11-29, 03:24:00,VALID,915.409,VALID,0,VALID,94.3022,VALID,0,VALID,19.3339,VALID,130,VALID,1.10357,
2001-11-29, 03:25:00,VALID,915.418,VALID,0,VALID,94.2005,VALID,0,VALID,19.3468,VALID,137,VALID,0.95957,
2001-11-29, 03:26:00,VALID,915.405,VALID,0,VALID,94.0937,VALID,0,VALID,19.3528,VALID,149,VALID,1.24641,
2001-11-29, 03:27:00,VALID,915.411,VALID,0,VALID,93.9461,VALID,0,VALID,19.3625,VALID,148,VALID,1.4377,
2001-11-29, 03:28:00,VALID,915.426,VALID,0,VALID,93.8253,VALID,-0.0509425,VALID,19.3789,VALID,142,VALID,1.16102,
2001-11-29, 03:29:00,VALID,915.418,VALID,0,VALID,93.7452,VALID,0,VALID,19.4015,VALID,139,VALID,0.719984,
2001-11-29, 03:30:00,VALID,915.42,VALID,0,VALID,93.5392,VALID,0,VALID,19.408,VALID,124,VALID,1.25535,
2001-11-29, 03:31:00,VALID,915.411,VALID,0,VALID,93.4083,VALID,-0.0339617,VALID,19.4241,VALID,144,VALID,1.00596,
2001-11-29, 03:32:00,VALID,915.415,VALID,0,VALID,93.2938,VALID,0,VALID,19.4338,VALID,142,VALID,1.35705,
2001-11-29, 03:33:00,VALID,915.402,VALID,0,VALID,93.0942,VALID,-0.0169808,VALID,19.4433,VALID,149,VALID,1.34101,
2001-11-29, 03:34:00,VALID,915.404,VALID,0,VALID,92.9924,VALID,-0.0169808,VALID,19.4795,VALID,153,VALID,1.34263,
2001-11-29, 03:35:00,VALID,915.411,VALID,0,VALID,92.9327,VALID,0.0169808,VALID,19.4786,VALID,155,VALID,1.74566,